Date String (YYYY-MM-DD hh:mm:ss) UTC,Instrument flags,Ambient pressure (hPa),Sample flow (lpm),Bypass flow (lpm),Sample temperature (°C),Ambient temperature (°C),ASC tube jacket temperature (°C),LED temperature (°C),Box temperature (°C),Sample RH (%),Span deviation,Mass concentration (μg/m³),Mass concentration (μg/m³),Mass concentration (μg/m³)
DateTimeUTC,F1_M11,P_M11,Q1_M11,Q2_M11,T1_M11,T2_M11,T3_M11,T4_M11,T5_M11,U1_M11,ZSPAN_M11,X0_M11,X2_M11,X1_M11
2022-03-01 17:00:00,,0830.3,5.00,0.00,27.8,27.1,00.0,36.6,29.7,09.8,0000.0,0005.32,0001.87,0000.86
2022-03-01 17:01:00,,0830.3,5.00,0.00,27.8,27.1,00.0,36.6,29.7,10.5,0000.0,0006.01,0001.99,0000.89
2022-03-01 17:02:00,,0830.3,4.99,0.00,27.8,27.1,00.0,36.6,29.8,10.9,0000.0,0006.29,0002.07,0000.91
2022-03-01 17:03:00,,0830.4,5.00,0.00,27.9,27.2,00.0,36.7,29.8,10.5,0000.0,0006.95,0002.09,0000.93
2022-03-01 17:04:00,,0830.4,5.00,0.00,27.9,27.2,00.0,36.7,29.8,10.6,0000.0,0007.72,0002.16,0000.95
2022-03-01 17:05:00,,0830.4,4.99,0.00,27.9,27.2,00.0,36.7,29.8,11.4,0000.0,0008.46,0002.23,0000.99
2022-03-01 17:06:00,,0830.4,5.02,0.00,27.9,27.2,00.0,36.7,29.8,10.9,0000.0,0009.23,0002.31,0001.02
2022-03-01 17:07:00,,0830.3,4.99,0.00,27.9,27.2,00.0,36.7,29.8,10.3,0000.0,0009.29,0002.34,0001.03
2022-03-01 17:08:00,,0830.4,4.99,0.00,28.0,27.2,00.0,36.8,29.8,09.8,0000.0,0009.27,0002.36,0001.03
2022-03-01 17:09:00,,0830.4,5.01,0.00,28.0,27.2,00.0,36.8,29.9,09.6,0000.0,0009.89,0002.34,0001.04
2022-03-01 17:10:00,,0830.4,5.00,0.00,28.0,27.3,00.0,36.8,29.9,10.1,0000.0,0010.13,0002.42,0001.06
2022-03-01 17:11:00,,0830.4,5.00,0.00,28.0,27.3,00.0,36.8,29.9,10.0,0000.0,0009.95,0002.44,0001.07
2022-03-01 17:12:00,,0830.4,5.00,0.00,28.0,27.3,00.0,36.8,29.9,09.8,0000.0,0009.34,0002.36,0001.06
2022-03-01 17:13:00,,0830.4,5.00,0.00,28.0,27.3,00.0,36.8,29.9,09.8,0000.0,0009.26,0002.33,0001.05
2022-03-01 17:14:00,,0830.4,4.99,0.00,28.1,27.3,00.0,36.9,29.9,09.3,0000.0,0009.13,0002.27,0001.04
2022-03-01 17:15:00,,0830.4,4.99,0.00,28.1,27.4,00.0,36.9,30.0,09.8,0000.0,0008.45,0002.25,0001.03
2022-03-01 17:16:00,,0830.4,5.00,0.00,28.1,27.4,00.0,36.9,30.0,10.2,0000.0,0007.91,0002.15,0001.00
2022-03-01 17:17:00,,0830.4,5.00,0.00,28.1,27.4,00.0,36.9,30.0,09.4,0000.0,0006.66,0002.05,0000.97
2022-03-01 17:18:00,,0830.4,5.00,0.00,28.2,27.4,00.0,36.9,30.0,09.3,0000.0,0006.26,0002.00,0000.94
2022-03-01 17:19:00,,0830.4,5.01,0.00,28.2,27.5,00.0,37.0,30.0,09.0,0000.0,0006.07,0001.93,0000.92
2022-03-01 17:20:00,,0830.4,5.00,0.00,28.2,27.5,00.0,37.0,30.1,09.2,0000.0,0005.40,0001.85,0000.89
2022-03-01 17:21:00,,0830.4,4.99,0.00,28.2,27.5,00.0,37.0,30.1,09.3,0000.0,0004.74,0001.82,0000.87
2022-03-01 17:22:00,,0830.4,5.01,0.00,28.2,27.5,00.0,37.0,30.1,09.1,0000.0,0004.58,0001.75,0000.86
2022-03-01 17:23:00,,0830.3,5.00,0.00,28.3,27.5,00.0,37.0,30.1,09.6,0000.0,0004.20,0001.66,0000.85
2022-03-01 17:24:00,,0830.3,5.00,0.00,28.3,27.5,00.0,37.1,30.2,09.4,0000.0,0004.65,0001.62,0000.83
2022-03-01 17:25:00,,0830.3,5.00,0.00,28.3,27.6,00.0,37.1,30.2,08.9,0000.0,0005.19,0001.60,0000.82
2022-03-01 17:26:00,,0830.3,5.01,0.00,28.3,27.6,00.0,37.1,30.2,08.5,0000.0,0006.32,0001.59,0000.81
2022-03-01 17:27:00,,0830.3,5.02,0.00,28.3,27.6,00.0,37.1,30.2,08.8,0000.0,0006.26,0001.53,0000.79
2022-03-01 17:28:00,,0830.3,5.01,0.00,28.4,27.6,00.0,37.2,30.2,08.7,0000.0,0006.13,0001.48,0000.79
2022-03-01 17:29:00,,0830.3,5.00,0.00,28.4,27.6,00.0,37.2,30.2,09.1,0000.0,0005.97,0001.46,0000.79
2022-03-01 17:30:00,,0830.3,5.00,0.00,28.4,27.7,00.0,37.2,30.3,08.8,0000.0,0006.07,0001.47,0000.80
2022-03-01 17:31:00,,0830.3,5.00,0.00,28.4,27.7,00.0,37.2,30.3,09.0,0000.0,0006.03,0001.54,0000.81
2022-03-01 17:32:00,,0830.4,5.00,0.00,28.4,27.7,00.0,37.2,30.3,08.8,0000.0,0005.55,0001.45,0000.80
2022-03-01 17:33:00,,0830.3,4.99,0.00,28.5,27.7,00.0,37.3,30.3,08.6,0000.0,0005.42,0001.41,0000.80
2022-03-01 17:34:00,,0830.4,5.00,0.00,28.5,27.7,00.0,37.3,30.3,09.0,0000.0,0005.72,0001.44,0000.79
2022-03-01 17:35:00,,0830.4,5.00,0.00,28.5,27.7,00.0,37.3,30.4,08.5,0000.0,0006.01,0001.46,0000.81
2022-03-01 17:36:00,,0830.4,5.00,0.00,28.5,27.8,00.0,37.3,30.4,08.4,0000.0,0005.42,0001.49,0000.80
2022-03-01 17:37:00,,0830.4,5.00,0.00,28.5,27.8,00.0,37.3,30.4,08.5,0000.0,0003.83,0001.41,0000.80
2022-03-01 17:38:00,,0830.4,5.01,0.00,28.5,27.8,00.0,37.4,30.4,08.5,0000.0,0004.29,0001.41,0000.80
2022-03-01 17:39:00,,0830.4,5.00,0.00,28.6,27.8,00.0,37.4,30.4,08.4,0000.0,0005.03,0001.42,0000.79
2022-03-01 17:40:00,,0830.4,5.00,0.00,28.6,27.8,00.0,37.4,30.4,08.3,0000.0,0005.04,0001.42,0000.78
2022-03-01 17:41:00,,0830.4,4.99,0.00,28.6,27.8,00.0,37.4,30.5,08.1,0000.0,0004.86,0001.37,0000.77
2022-03-01 17:42:00,,0830.4,5.01,0.00,28.6,27.8,00.0,37.4,30.4,08.4,0000.0,0004.74,0001.26,0000.76
2022-03-01 17:43:00,,0830.4,4.99,0.00,28.6,27.8,00.0,37.5,30.5,08.1,0000.0,0004.81,0001.27,0000.75
2022-03-01 17:44:00,,0830.3,4.99,0.00,28.6,27.9,00.0,37.5,30.5,08.2,0000.0,0004.89,0001.27,0000.74
2022-03-01 17:45:00,,0830.3,5.01,0.00,28.7,27.9,00.0,37.5,30.5,08.5,0000.0,0005.46,0001.30,0000.73
2022-03-01 17:46:00,,0830.3,5.01,0.00,28.7,27.9,00.0,37.5,30.5,08.5,0000.0,0005.09,0001.26,0000.71
2022-03-01 17:47:00,,0830.3,4.99,0.00,28.7,27.9,00.0,37.5,30.5,08.6,0000.0,0004.87,0001.20,0000.70
2022-03-01 17:48:00,,0830.3,4.99,0.00,28.7,28.0,00.0,37.5,30.6,08.5,0000.0,0004.97,0001.23,0000.70
2022-03-01 17:49:00,,0830.2,5.01,0.00,28.7,28.0,00.0,37.6,30.6,08.2,0000.0,0004.57,0001.23,0000.69
2022-03-01 17:50:00,,0830.2,4.99,0.00,28.7,28.0,00.0,37.6,30.6,08.3,0000.0,0003.44,0001.16,0000.67
2022-03-01 17:51:00,,0830.2,5.00,0.00,28.8,28.0,00.0,37.6,30.6,08.2,0000.0,0003.32,0001.11,0000.66
2022-03-01 17:52:00,,0830.2,5.00,0.00,28.8,28.0,00.0,37.6,30.6,08.2,0000.0,0003.87,0001.10,0000.65
2022-03-01 17:53:00,,0830.2,5.01,0.00,28.8,28.0,00.0,37.6,30.7,08.3,0000.0,0003.87,0001.10,0000.64
2022-03-01 17:54:00,,0830.2,4.99,0.00,28.8,28.1,00.0,37.6,30.7,08.3,0000.0,0003.78,0001.07,0000.63
2022-03-01 17:55:00,,0830.2,5.00,0.00,28.8,28.1,00.0,37.7,30.7,08.2,0000.0,0004.77,0001.07,0000.63
2022-03-01 17:56:00,,0830.2,5.00,0.00,28.9,28.1,00.0,37.7,30.7,08.2,0000.0,0004.20,0001.00,0000.61
2022-03-01 17:57:00,,0830.3,5.01,0.00,28.9,28.1,00.0,37.7,30.7,08.2,0000.0,0003.62,0000.98,0000.60
2022-03-01 17:58:00,,0830.2,5.02,0.00,28.9,28.1,00.0,37.7,30.8,08.4,0000.0,0003.59,0000.97,0000.58
2022-03-01 17:59:00,,0830.2,4.99,0.00,28.9,28.2,00.0,37.7,30.8,08.5,0000.0,0003.56,0000.94,0000.57
